Simultaneous Nadir Overpasses (SNOs) Predictions

Prediction of SNOs between AQUA and GOES-15 Satellite Orbit:

Table of predicted SNOs for the next 14.0 days since TLE Epoch: 6/29/2019
Index Date Time (AQUA) AQUA Lat,Lon GOES-15 Lat,Lon Distance(km) Time Diff (sec)
1 06/30/2019 21:58:03 0.55,-125.70 0.10,-127.89 248.55 80
2 07/01/2019 10:19:19 0.50,-130.86 -0.12,-127.87 340.04 80
3 07/03/2019 10:07:07 -0.11,-127.90 -0.12,-127.79 11.97 80
4 07/05/2019 09:54:55 -0.72,-124.94 -0.12,-127.71 315.64 80
5 07/05/2019 22:16:19 -0.39,-130.13 0.14,-127.69 277.91 80
6 07/07/2019 22:04:07 0.24,-127.17 0.14,-127.61 49.52 80
7 07/09/2019 21:51:55 0.86,-124.21 0.14,-127.52 376.83 80
8 07/10/2019 10:13:10 0.21,-129.38 -0.16,-127.51 211.61 80
9 07/12/2019 10:00:57 -0.35,-126.40 -0.16,-127.42 115.03 80
10 07/12/2019 22:22:21 -0.73,-131.60 0.18,-127.39 479.59 80




NCC Satellite Simultaneous Nadir Overpasses (SNOs) Prediction Service
